Stations météo

réclame
Mon MeteoGroup
Almondsbury, Grande-Bretagne (3930): Température de l'air & dewpoint: 22.10.2020 02:00:00 - 28.10.2020 02:00:00 (GMT)Almondsbury, Grande-Bretagne (3930): Température de l'air -20cm & Température de l'air -100cm: 22.10.2020 02:00:00 - 28.10.2020 02:00:00 (GMT)Almondsbury, Grande-Bretagne (3930): Vitesse du vent & gusts: 22.10.2020 02:00:00 - 28.10.2020 02:00:00 (GMT)Almondsbury, Grande-Bretagne (3930): Direction du vent: 22.10.2020 02:00:00 - 28.10.2020 02:00:00 (GMT)Almondsbury, Grande-Bretagne (3930): reduced air pressure: 22.10.2020 02:00:00 - 28.10.2020 02:00:00 (GMT)Almondsbury, Grande-Bretagne (3930): visibility: 22.10.2020 02:00:00 - 28.10.2020 02:00:00 (GMT)Almondsbury, Grande-Bretagne (3930): Ensoleillement: 22.10.2020 02:00:00 - 28.10.2020 02:00:00 (GMT)Almondsbury, Grande-Bretagne (3930): Quantités de précipitations: 22.10.2020 02:00:00 - 28.10.2020 02:00:00 (GMT)
Date & Time tt [°C] td [°C] tt -20cm [°C] tt -100cm [°C] ff [km/h] ff [knt] fx [km/h] fx [knt] dd ppp [hPa] vv [km] sd [min] rr [mm]
28.10.2020 02:00:00 - - - - - - - - - - - - -
28.10.2020 01:00:00 8,6 5,0 - - 18 10 - - SSW 998,9 50 0 0,0
28.10.2020 00:00:00 8,4 4,8 - - 15 8 - - S 998,8 55 - 0,0
27.10.2020 23:00:00 8,6 5,1 - - 16 9 - - SSW 999,0 50 0 0,0
27.10.2020 22:00:00 8,7 5,7 - - 21 11 - - SSW 998,7 40 0 0,0
27.10.2020 21:00:00 8,5 6,6 - - 16 9 - - SSW 998,1 28 0 0,2
27.10.2020 20:00:00 10,1 6,8 - - 13 7 - - SW 998,3 3,2 0 0,2
27.10.2020 19:00:00 10,2 6,1 - - 15 8 - - SW 997,3 23 0 0,0
27.10.2020 18:00:00 10,8 6,6 - - 24 13 - - WSW 996,5 23 0 0,0
27.10.2020 17:00:00 11,2 6,6 - - 26 14 - - WSW 995,7 22 18 0,0
27.10.2020 16:00:00 11,9 6,5 - - 29 16 54 29 WSW 994,6 26 54 0,0
27.10.2020 15:00:00 12,4 9,8 - - 31 17 48 26 WSW 993,7 27 6 0,2
27.10.2020 14:00:00 12,8 10,9 - - 22 12 - - SW 993,1 30 0 0,0
27.10.2020 13:00:00 12,5 11,2 - - 29 16 50 27 WSW 992,7 6 0 0,6
27.10.2020 12:00:00 13,1 12,5 - - 15 8 - - S 992,2 75 0 0,4
27.10.2020 11:00:00 12,1 11,3 - - 22 12 - - SE 993,1 3,2 0 0,2
27.10.2020 10:00:00 11,2 10,5 - - 21 11 - - SSE 994,0 35 0 0,2
27.10.2020 09:00:00 9,8 9,4 11,7 13,4 16 9 - - SE 995,2 9 0 0,2
27.10.2020 08:00:00 8,9 8,4 - - 15 8 - - ESE 996,7 3,7 0 0,6
27.10.2020 07:00:00 8,6 7,5 - - 13 7 - - SSE 997,8 11 0 0,0
27.10.2020 06:00:00 8,5 6,8 - - 13 7 - - S 998,7 35 0 0,8
27.10.2020 05:00:00 9,1 6,6 - - 13 7 - - S 999,4 10 0 0,2
27.10.2020 04:00:00 8,4 7,2 - - 9 5 - - S 999,7 40 0 0,0
27.10.2020 03:00:00 8,5 8,0 - - 9 5 - - SSW 1000,5 45 0 0,0
27.10.2020 02:00:00 8,4 7,8 - - 11 6 - - SW 1001,0 40 0 0,0
27.10.2020 01:00:00 7,4 6,5 - - 8 4 - - S 1001,2 25 0 0,0
27.10.2020 00:00:00 8,2 6,7 - - 5 3 - - SSW 1001,6 30 - 0,0
26.10.2020 23:00:00 8,9 6,9 - - 13 7 - - SW 1001,7 35 0 0,0
26.10.2020 22:00:00 8,6 6,9 - - 9 5 - - SW 1001,7 30 0 0,0
26.10.2020 21:00:00 9,4 7,4 - - 15 8 - - SW 1001,4 30 0 0,0
26.10.2020 20:00:00 9,7 7,4 - - 15 8 - - WSW 1001,0 27 0 0,0
26.10.2020 19:00:00 9,0 6,6 - - 9 5 - - SW 1000,9 30 0 0,0
26.10.2020 18:00:00 9,9 6,1 - - 16 9 - - WSW 1000,4 30 0 0,0
26.10.2020 17:00:00 10,0 6,2 - - 11 6 - - SW 1000,0 35 6 0,0
26.10.2020 16:00:00 11,8 5,9 - - 15 8 - - WSW 999,6 45 54 0,0
26.10.2020 15:00:00 12,9 5,9 - - 21 11 - - WSW 998,9 50 54 0,0
26.10.2020 14:00:00 12,1 7,2 - - 18 10 - - W 998,5 13 12 0,0
26.10.2020 13:00:00 12,3 7,3 - - 18 10 - - WSW 998,3 45 24 0,0
26.10.2020 12:00:00 13,3 7,3 - - 22 12 - - WSW 997,9 50 30 0,0
26.10.2020 11:00:00 11,7 8,2 - - 21 11 - - WSW 997,5 65 36 0,0
26.10.2020 10:00:00 11,6 9,3 - - 18 10 - - WSW 996,6 40 30 0,0
26.10.2020 09:00:00 9,7 8,6 11,9 13,5 13 7 - - SSW 996,1 30 18 0,0
26.10.2020 08:00:00 8,7 8,0 - - 11 6 - - S 995,9 35 0 0,2
26.10.2020 07:00:00 8,2 7,6 - - 15 8 - - SSW 995,3 18 0 0,4
26.10.2020 06:00:00 7,5 6,8 - - 11 6 - - S 994,8 35 0 0,0
26.10.2020 05:00:00 7,8 6,5 - - 13 7 - - SSW 995,0 50 0 0,2
26.10.2020 04:00:00 7,9 6,5 - - 15 8 - - SSW 994,9 12 0 0,0
26.10.2020 03:00:00 7,5 5,9 - - 9 5 - - S 994,7 45 0 0,4
26.10.2020 02:00:00 7,8 5,7 - - 8 4 - - SSW 995,0 14 0 0,0
26.10.2020 01:00:00 7,4 5,2 - - 5 3 - - S 995,2 50 0 0,0
26.10.2020 00:00:00 7,9 5,5 - - 13 7 - - S 995,5 60 - 0,0
25.10.2020 23:00:00 7,4 5,4 - - 8 4 - - S 995,5 70 0 0,0
25.10.2020 22:00:00 7,7 5,5 - - 9 5 - - S 995,6 70 0 0,0
25.10.2020 21:00:00 8,4 5,8 - - 9 5 - - SSW 995,6 75 0 0,0
25.10.2020 20:00:00 8,8 5,8 - - 13 7 - - SSW 995,3 75 0 0,0
25.10.2020 19:00:00 9,0 5,0 - - 9 5 - - SSW 995,2 75 0 0,0
25.10.2020 18:00:00 9,9 5,6 - - 13 7 - - SSW 994,9 75 0 0,0
25.10.2020 17:00:00 10,7 6,6 - - 8 4 - - S 994,4 75 0 0,0
25.10.2020 16:00:00 10,9 7,7 - - 8 4 - - S 994,3 45 18 0,2
25.10.2020 15:00:00 9,5 7,9 - - 8 4 - - W 994,1 75 18 2,2
25.10.2020 14:00:00 12,5 5,2 - - 21 11 - - SSW 993,9 75 24 0,0
25.10.2020 13:00:00 13,2 6,7 - - 18 10 - - SSW 994,2 65 36 0,0
25.10.2020 12:00:00 12,8 6,8 - - 18 10 - - SSW 994,6 45 42 0,0
25.10.2020 11:00:00 12,2 6,8 - - 18 10 - - SSW 994,9 45 24 0,0
25.10.2020 10:00:00 10,6 6,7 - - 13 7 - - S 995,2 50 48 0,0
25.10.2020 09:00:00 9,9 6,2 12,2 13,5 13 7 - - S 995,3 50 48 0,0
25.10.2020 08:00:00 8,9 6,5 - - 15 8 - - SW 995,3 45 0 0,0
25.10.2020 07:00:00 8,7 5,5 - - 15 8 - - S 994,5 45 0 0,0
25.10.2020 06:00:00 8,3 5,2 - - 13 7 - - S 994,3 45 0 0,0
25.10.2020 05:00:00 8,4 5,4 - - 13 7 - - S 994,2 45 0 0,0
25.10.2020 04:00:00 8,8 5,9 - - 16 9 - - S 994,4 45 0 0,0
25.10.2020 03:00:00 8,8 6,2 - - 15 8 - - S 994,3 40 0 0,0
25.10.2020 02:00:00 8,6 6,7 - - 15 8 - - S 995,0 50 0 0,0
25.10.2020 01:00:00 8,4 6,6 - - 11 6 - - S 994,9 60 0 0,0
25.10.2020 00:00:00 - - - - - - - - - - - - -
24.10.2020 23:00:00 9,6 8,0 - - 16 9 - - SSW 994,7 55 0 0,0
24.10.2020 22:00:00 9,8 8,9 - - 11 6 - - SSW 994,1 55 0 0,2
24.10.2020 21:00:00 9,7 8,6 - - 18 10 - - SW 993,9 6 0 1,4
24.10.2020 20:00:00 11,0 10,5 - - 9 5 - - SSW 993,6 8 0 0,6
24.10.2020 19:00:00 11,1 10,3 - - 16 9 - - SW 993,5 13 0 1,6
24.10.2020 18:00:00 12,1 10,9 - - 18 10 - - SSW 993,2 8 0 2,6
24.10.2020 17:00:00 12,8 10,7 - - 18 10 - - S 993,3 15 0 0,2
24.10.2020 16:00:00 13,2 11,2 - - 22 12 - - S 993,9 75 0 0,8
24.10.2020 15:00:00 13,5 11,9 - - 18 10 52 28 SSW 994,9 30 0 2,2
24.10.2020 14:00:00 14,6 13,1 - - 28 15 54 29 S 994,7 23 0 0,8
24.10.2020 13:00:00 12,6 11,8 - - 16 9 52 28 SW 996,5 5 0 0,4
24.10.2020 12:00:00 15,4 12,5 - - 26 14 52 28 S 997,8 40 0 0,0
24.10.2020 11:00:00 14,5 12,4 - - 21 11 46 25 S 999,1 35 0 0,0
24.10.2020 10:00:00 14,2 11,9 - - 26 14 - - S 999,9 60 0 0,0
24.10.2020 09:00:00 13,5 11,2 12,5 13,7 22 12 - - S 1000,5 60 0 0,0
24.10.2020 08:00:00 13,0 10,0 - - 24 13 46 25 S 1001,3 45 0 0,0
24.10.2020 07:00:00 12,6 9,5 - - 22 12 - - S 1002,0 50 0 0,0
24.10.2020 06:00:00 11,8 8,8 - - 13 7 - - S 1003,2 30 0 0,0
24.10.2020 05:00:00 11,2 7,8 - - 16 9 - - S 1004,1 35 0 0,0
24.10.2020 04:00:00 10,8 7,2 - - 18 10 - - S 1004,9 35 0 0,0
24.10.2020 03:00:00 9,9 6,9 - - 15 8 - - S 1005,9 40 0 0,0
24.10.2020 02:00:00 9,2 5,9 - - 13 7 - - S 1006,7 50 0 0,0
24.10.2020 01:00:00 8,7 6,1 - - 13 7 - - S 1007,8 35 0 0,0
24.10.2020 00:00:00 8,0 5,1 - - 9 5 - - S 1008,4 35 - 0,0
23.10.2020 23:00:00 7,7 5,0 - - 5 3 - - SSE 1009,2 30 0 0,0
23.10.2020 22:00:00 8,5 5,5 - - 9 5 - - S 1009,5 30 0 0,0
23.10.2020 21:00:00 8,4 5,1 - - 8 4 - - SSE 1009,6 30 0 0,0
23.10.2020 20:00:00 9,1 5,4 - - 9 5 - - SSW 1009,8 35 0 0,0
23.10.2020 19:00:00 8,2 4,8 - - 5 3 - - SSW 1009,6 35 0 0,0
23.10.2020 18:00:00 9,2 4,8 - - 11 6 - - WSW 1009,2 40 0 0,0
23.10.2020 17:00:00 10,1 4,5 - - 16 9 - - SW 1008,6 45 30 0,0
23.10.2020 16:00:00 11,7 5,0 - - 22 12 - - WSW 1008,0 45 18 0,0
23.10.2020 15:00:00 11,8 6,2 - - 21 11 - - WSW 1007,8 60 36 0,0
23.10.2020 14:00:00 12,8 7,1 - - 22 12 - - WSW 1007,1 75 42 0,0
23.10.2020 13:00:00 11,8 9,4 - - 18 10 - - SSW 1006,9 75 0 0,2
23.10.2020 12:00:00 12,5 9,8 - - 16 9 - - SSW 1006,7 70 0 0,0
23.10.2020 11:00:00 12,2 9,5 - - 15 8 - - SW 1006,9 75 0 0,0
23.10.2020 10:00:00 12,1 10,0 - - 16 9 - - SSW 1006,6 75 0 0,0
23.10.2020 09:00:00 11,9 10,2 12,7 13,7 13 7 - - SSW 1006,4 70 0 0,0
23.10.2020 08:00:00 11,2 10,2 - - 8 4 - - SSW 1006,4 40 0 0,0
23.10.2020 07:00:00 10,9 10,0 - - 8 4 - - S 1006,5 30 0 0,0
23.10.2020 06:00:00 11,1 10,3 - - 8 4 - - SSW 1006,4 35 0 0,0
23.10.2020 05:00:00 11,2 10,4 - - 11 6 - - SSW 1006,6 30 0 0,0
23.10.2020 04:00:00 10,8 10,5 - - 9 5 - - SSW 1006,7 29 0 0,0
23.10.2020 03:00:00 11,0 10,8 - - 5 3 - - S 1006,8 25 0 0,0
23.10.2020 02:00:00 10,4 10,1 - - 5 3 - - ESE 1007,5 13 0 0,2
23.10.2020 01:00:00 9,6 9,2 - - 8 4 - - E 1008,1 4,6 0 2,0
23.10.2020 00:00:00 9,6 8,8 - - 8 4 - - ESE 1008,8 12 - 0,0
22.10.2020 23:00:00 10,2 8,3 - - 8 4 - - SE 1009,4 30 0 0,0
22.10.2020 22:00:00 10,3 8,0 - - 4 2 - - SE 1009,8 28 0 0,0
22.10.2020 21:00:00 10,1 8,1 - - 4 2 - - SSE 1010,4 35 0 0,0
22.10.2020 20:00:00 9,8 7,5 - - 2 1 - - SW 1010,2 45 0 0,0
22.10.2020 19:00:00 10,8 6,9 - - 5 3 - - SW 1010,3 45 0 0,0
22.10.2020 18:00:00 10,4 7,4 - - 8 4 - - WSW 1010,0 40 0 0,0
22.10.2020 17:00:00 10,9 6,9 - - 8 4 - - SW 1009,5 55 0 0,0
22.10.2020 16:00:00 11,6 6,7 - - 11 6 - - SW 1009,5 65 12 0,0
22.10.2020 15:00:00 12,9 7,2 - - 15 8 - - WSW 1009,1 65 60 0,0
22.10.2020 14:00:00 13,0 6,9 - - 13 7 - - SW 1009,0 70 54 0,0
22.10.2020 13:00:00 12,7 6,9 - - 16 9 - - SW 1009,0 75 54 0,0
22.10.2020 12:00:00 12,6 7,6 - - 16 9 - - SW 1009,1 60 54 0,0
22.10.2020 11:00:00 10,7 7,3 - - 16 9 - - SW 1009,1 50 6 0,0
22.10.2020 10:00:00 10,9 8,0 - - 11 6 - - SW 1008,7 65 6 0,0
22.10.2020 09:00:00 10,5 7,4 12,9 13,7 11 6 - - WSW 1008,4 75 36 0,0
22.10.2020 08:00:00 10,1 8,4 - - 13 7 - - WSW 1007,6 75 0 0,2
22.10.2020 07:00:00 9,9 9,0 - - 11 6 - - SW 1006,4 40 0 0,2
22.10.2020 06:00:00 10,5 10,1 - - 11 6 - - SSW 1005,6 4,5 0 1,2
22.10.2020 05:00:00 11,0 10,4 - - 11 6 - - WSW 1005,1 2,7 0 0,8
22.10.2020 04:00:00 11,6 10,6 - - 13 7 - - SSW 1004,2 60 0 0,0
22.10.2020 03:00:00 11,6 10,3 - - 13 7 - - SSW 1004,0 75 0 0,0
22.10.2020 02:00:00 11,5 10,6 - - 11 6 - - S 1003,8 75 0 0,0

tt = Température de l'air
td = dewpoint
tt -20cm = Température de l'air -20cm
tt -100cm = Température de l'air -100cm
ff = Vitesse du vent
fx = gusts
dd = Direction du vent
ppp = reduced air pressure
vv = visibility
sd = Ensoleillement
rr = Quantités de précipitations

stations d'obs. à proximité